Погода в Кяхте

Турция     37°47′15″N   38°37′08″E
темп.,
°C
ветер,
м/с
пор.,
м/с
влажн.,
%
обл.,
%
осадки,
мм/ч
давл.,
гПа
погр.,
м
15 апреля, чт
чт1500:00+10св0054100 0.0 101910
03:00+9в1157100 0.0 101810
06:00+9в1161100 0.0 101910
09:00+13в1151100 0.0 1019244
12:00+17ююз2241100 0.0 10181057
15:00+19зюз344169 0.0 10161550
18:00+18з22545 0.0 101632
21:00+14ссв11550 0.0 101611
16 апреля, пт
пт1600:00+13св22580 0.0 101710
03:00+11всв11635 0.0 101610
06:00+10всв116821 0.0 101710
09:00+16в225245 0.0 1018349
12:00+20юв224223 0.0 10181386
15:00+22юз2235100 0.0 10161833
18:00+20з334961 0.0 101650
21:00+16ссз2250100 0.0 101711
17 апреля, сб
сб1700:00+15ссв11545 0.0 101711
03:00+14всв11584 0.0 101711
06:00+12всв11636 0.0 101810
09:00+18вюв1150100 0.0 1019269
12:00+22юз233585 0.0 10171070
15:00+25зюз343276 0.0 10151505
18:00+22ююз224640 0.0 101528
21:00+18сз114911 0.0 101711
18 апреля, вс
вс1800:00+17юв0051100 0.0 101711
03:00+16всв11545 0.0 101611
06:00+15всв1158100 0.0 101711
09:00+20ююв114678 0.0 1017234
12:00+25зюз223528 0.0 1016862
15:00+27зюз453599 0.0 1015985
18:00+25ссз2244100 0.0 101527
21:00+21ссв4446100 0.0 101742
19 апреля, пн
пн1900:00+19с124978 0.0 101715
03:00+18с1147100 0.0 101611
06:00+19ссз1146100 0.0 101711
09:00+22всв2242100 0.0 1016218
12:00+26зюз3336100 0.0 1016829
15:00+26зюз3437100 0.0 10141145
18:00+23с2249100 0.0 101315
21:00+21св3347100 0.0 101321